Time,TemperatureF,DewpointF,PressureIn,WindDirection,WindDirectionDegrees,WindSpeedMPH,WindSpeedGustMPH,Humidity,HourlyPrecipIn,Conditions,Clouds,dailyrainin,SoftwareType,DateUTC
2013-09-05 00:23:00,62.0,61.0,30.12,North,0,0.0,0.0,95,85.84,,,-99.99,,2013-09-05 05:23:00,
2013-09-05 00:52:00,63.0,61.0,30.12,North,0,0.0,0.0,94,85.84,,,-99.99,,2013-09-05 05:52:00,
2013-09-05 01:21:00,63.0,61.0,30.12,North,0,0.0,0.0,92,85.84,,,-99.99,,2013-09-05 06:21:00,
2013-09-05 01:52:00,62.0,60.0,30.13,North,0,0.0,0.0,94,85.84,,,-99.99,,2013-09-05 06:52:00,
2013-09-05 02:23:00,61.0,60.0,30.13,North,0,0.0,0.0,96,85.84,,,-99.99,,2013-09-05 07:23:00,
2013-09-05 02:32:00,61.0,60.0,30.13,North,0,0.0,0.0,96,85.84,,,-99.99,,2013-09-05 07:32:00,
2013-09-05 02:52:00,61.0,60.0,30.14,North,0,0.0,0.0,97,85.84,,,-99.99,,2013-09-05 07:52:00,
2013-09-05 03:22:00,60.0,59.0,30.14,North,0,0.0,0.0,98,85.84,,,-99.99,,2013-09-05 08:22:00,
2013-09-05 03:52:00,60.0,59.0,30.14,North,0,0.0,0.0,98,85.84,,,-99.99,,2013-09-05 08:52:00,
2013-09-05 04:22:00,60.0,59.0,30.14,North,0,0.0,0.0,98,85.84,,,-99.99,,2013-09-05 09:22:00,
2013-09-05 04:54:00,60.0,60.0,30.15,North,0,0.0,0.0,99,85.84,,,-99.99,,2013-09-05 09:54:00,
2013-09-05 05:23:00,61.0,61.0,30.15,North,0,0.0,0.0,99,85.84,,,-99.99,,2013-09-05 10:23:00,
2013-09-05 05:53:00,62.0,61.0,30.15,North,0,0.0,0.0,98,85.84,,,-99.99,,2013-09-05 10:53:00,
2013-09-05 06:22:00,60.0,59.0,30.15,North,0,0.0,0.0,98,85.84,,,-99.99,,2013-09-05 11:22:00,
2013-09-05 06:52:00,60.0,59.0,30.16,North,0,0.0,0.0,98,85.84,,,-99.99,,2013-09-05 11:52:00,
2013-09-05 07:12:00,59.0,59.0,30.16,North,0,0.0,0.0,99,85.84,,,-99.99,,2013-09-05 12:12:00,
2013-09-05 07:21:00,59.0,59.0,30.16,North,0,0.0,0.0,99,85.84,,,-99.99,,2013-09-05 12:21:00,
2013-09-05 07:52:00,61.0,61.0,30.17,North,0,0.0,0.0,100,85.84,,,-99.99,,2013-09-05 12:52:00,
2013-09-05 08:21:00,63.0,62.0,30.17,North,0,0.0,0.0,98,85.84,,,-99.99,,2013-09-05 13:21:00,
2013-09-05 08:53:00,67.0,64.0,30.17,North,0,0.0,0.0,91,85.84,,,-99.99,,2013-09-05 13:53:00,
2013-09-05 09:22:00,70.0,63.0,30.18,NNE,15,1.0,4.0,78,85.84,,,-99.99,,2013-09-05 14:22:00,
2013-09-05 09:52:00,72.0,62.0,30.18,NNE,20,1.0,3.0,71,85.84,,,-99.99,,2013-09-05 14:52:00,
2013-09-05 10:22:00,74.0,60.0,30.18,ESE,104,2.0,4.0,61,85.84,,,-99.99,,2013-09-05 15:22:00,
2013-09-05 10:54:00,77.0,62.0,30.19,North,1,1.0,4.0,59,85.84,,,-99.99,,2013-09-05 15:54:00,
2013-09-05 11:13:00,78.0,60.0,30.19,NE,37,0.0,3.0,54,85.84,,,-99.99,,2013-09-05 16:13:00,
2013-09-05 11:24:00,78.0,60.0,30.19,NE,37,0.0,3.0,54,85.84,,,-99.99,,2013-09-05 16:24:00,
2013-09-05 11:54:00,81.0,60.0,30.19,WSW,252,0.0,2.0,49,85.84,,,-99.99,,2013-09-05 16:54:00,
2013-09-05 12:23:00,83.0,61.0,30.19,SSE,162,1.0,3.0,47,85.84,,,-99.99,,2013-09-05 17:23:00,
2013-09-05 12:52:00,85.0,61.0,30.19,ESE,113,1.0,7.0,45,85.84,,,-99.99,,2013-09-05 17:52:00,
2013-09-05 13:22:00,84.0,61.0,30.18,SE,143,1.0,5.0,46,85.84,,,-99.99,,2013-09-05 18:22:00,
2013-09-05 13:52:00,85.0,62.0,30.17,SSW,195,1.0,4.0,47,85.84,,,-99.99,,2013-09-05 18:52:00,
2013-09-05 14:22:00,86.0,62.0,30.17,NW,308,0.0,3.0,45,85.84,,,-99.99,,2013-09-05 19:22:00,
2013-09-05 14:52:00,87.0,62.0,30.16,SW,236,0.0,3.0,44,85.84,,,-99.99,,2013-09-05 19:52:00,
2013-09-05 15:22:00,88.0,63.0,30.15,SW,236,0.0,2.0,43,85.84,,,-99.99,,2013-09-05 20:22:00,
2013-09-05 15:52:00,88.0,61.0,30.15,SSW,207,0.0,3.0,41,85.84,,,-99.99,,2013-09-05 20:52:00,
2013-09-05 16:02:00,88.0,61.0,30.15,SSW,207,0.0,3.0,41,85.84,,,-99.99,,2013-09-05 21:02:00,
2013-09-05 16:21:00,88.0,61.0,30.14,SSW,212,0.0,3.0,41,85.84,,,-99.99,,2013-09-05 21:21:00,
2013-09-05 16:54:00,89.0,63.0,30.14,SW,224,0.0,3.0,42,85.84,,,-99.99,,2013-09-05 21:54:00,
2013-09-05 17:24:00,88.0,63.0,30.14,SSE,167,0.0,2.0,44,85.84,,,-99.99,,2013-09-05 22:24:00,
2013-09-05 17:53:00,86.0,65.0,30.14,SW,226,0.0,1.0,49,85.84,,,-99.99,,2013-09-05 22:53:00,
2013-09-05 18:22:00,85.0,67.0,30.13,North,0,0.0,0.0,55,85.84,,,-99.99,,2013-09-05 23:22:00,
2013-09-05 18:53:00,81.0,67.0,30.14,North,0,0.0,0.0,62,85.84,,,-99.99,,2013-09-05 23:53:00,
2013-09-05 19:22:00,79.0,66.0,30.14,East,82,2.0,4.0,65,85.84,,,-99.99,,2013-09-06 00:22:00,
2013-09-05 19:52:00,77.0,66.0,30.14,East,101,0.0,2.0,69,85.84,,,-99.99,,2013-09-06 00:52:00,
2013-09-05 20:22:00,75.0,67.0,30.15,North,0,0.0,0.0,75,85.84,,,-99.99,,2013-09-06 01:22:00,
2013-09-05 20:52:00,74.0,66.0,30.16,ESE,103,1.0,4.0,76,85.84,,,-99.99,,2013-09-06 01:52:00,
2013-09-05 21:22:00,73.0,66.0,30.16,East,97,0.0,3.0,78,85.84,,,-99.99,,2013-09-06 02:22:00,
2013-09-05 21:52:00,72.0,65.0,30.16,ESE,115,2.0,3.0,79,85.84,,,-99.99,,2013-09-06 02:52:00,
2013-09-05 22:22:00,72.0,65.0,30.18,ESE,108,2.0,4.0,78,85.84,,,-99.99,,2013-09-06 03:22:00,
2013-09-05 22:55:00,70.0,64.0,30.18,East,82,0.0,2.0,80,85.84,,,-99.99,,2013-09-06 03:55:00,
2013-09-05 23:23:00,70.0,63.0,30.18,NE,44,1.0,4.0,79,85.84,,,-99.99,,2013-09-06 04:23:00,
2013-09-05 23:54:00,69.0,63.0,30.18,SSE,150,1.0,2.0,80,85.84,,,-99.99,,2013-09-06 04:54:00,